Location: Antioch Baptist Church
(32.6696°N, 85.7327°W)
Time: 21:06:26
(UTC+00:00)

Cosmos 1763 Rocket - Pass Details

Date: 14 July 2020
Orbit: 732 x 781 km, 74.0° (Epoch: 13 August)

Event Time Altitude Azimuth Distance (km) Brightness Sun altitude
Rises 09:06:39 0° 343° (NNW) 3,244 7.1 -18.1°
Reaches altitude 10° 09:09:01 10° 343° (NNW) 2,320 6.3 -17.7°
Maximum altitude 09:14:18 87° 257° (WSW) 782 3.5 -16.9°
Drops below altitude 10° 09:19:36 10° 166° (SSE) 2,323 5.7 -16.0°
Sets 09:21:59 0° 166° (SSE) 3,248 6.5 -15.6°
